Find Local Weather

World > North America > United States > Florida

Miami Beach, Florida Regional Weather

Lat: 25.81N, Lon: 80.13W
Wx Zone: FLZ173
Warning FLW WEATHER ALERT - (More Info. Click Here) Warning
Feedback
Expires:201810200400;;448530
ASUS42 KTBW 200317
RWRFL 
FLORIDA REGIONAL WEATHER ROUNDUP
NATIONAL WEATHER SERVICE TAMPA BAY RUSKIN FL
1100 PM EDT FRI OCT 19 2018

NOTE: "FAIR" INDICATES FEW OR NO CLOUDS BELOW 12,000 FEET WITH NO
SIGNIFICANT WEATHER AND/OR OBSTRUCTIONS TO VISIBILITY.


FLZ067-068-071>074-168-172>174-200400-
SOUTHEAST FLORIDA 
  
CITY           SKY/WX    TMP DP  RH WIND       PRES   REMARKS
W PALM BEACH   FAIR      81  74  79 E8        30.10S                  
BOCA RATON     PTCLDY    79  72  78 E5        30.09F                  
FT LAUDER-EXEC FAIR      80  75  84 E8        30.09S                  
FT LAUDERDALE  FAIR      80  74  81 E8        30.09R                  
POMPANO BEACH  FAIR      82  72  71 E6        30.09S                  
PEMBROKE PINES FAIR      80  72  76 E3        30.11R                  
OPA LOCKA      FAIR      80  73  79 E3        30.10S                  
MIAMI          FAIR      80  73  79 E7        30.10R                  
WEST KENDALL   FAIR      77  72  84 E5        30.09S                  
HOMESTEAD      FAIR      79  71  77 E5        30.08S                  

STATION/POSITION SKY/WX   TEMP    WIND        PRES    WAVE   SWELL
                          AIR SEA DIR/SP/G            HT/PER HT/PER
                          (F)     (DEG/KT/KT) (MB)    (FT/S) (FT/S)
PORT EVERGLADES            82      90/  4/  7 1019.0R
VIRGINIA KEY               82 85   60/  7/  9 1018.7R
LAKE WORTH                 81 83   90/  8/ 11 1020.2S
FOWEY ROCKS                81 82   80/ 11/ 12 1019.5S
SETTLEMENT POINT           81     100/  8/ 10 1019.3S

$$

  

SKY/WX - Weather  TMP - Temperature  DP - Dew Point  RH - Relative Humidity
WIND - Wind Direction/Speed PRES - Barometric Pressure